Location: Udine
(46.0620°N, 13.2420°E)
Time: 03:19:07
(UTC+02:00)

ISS - Pass Details

Date: 14 May 2021
Orbit: 417 x 422 km, 51.6° (Epoch: 14 June)

Event Time Altitude Azimuth Distance (km) Brightness Sun altitude
Exits shadow 01:18:08 31° 347° (NNW) 764 -1.9 -25.2°
Maximum altitude 01:18:19 31° 354° (N) 761 -1.9 -25.2°
Drops below altitude 10° 01:21:23 10° 59° (ENE) 1,508 -0.5 -25.2°
Sets 01:23:38 0° 70° (ENE) 2,374 0.4 -25.1°
